User: anonymous   Login
Location: Fontevrault
(47.1823°N, 0.0493°E)
Time: 03:57:30
(UTC+00:00)
Language:

Cosmos 1459 Rocket - Orbit

View from above orbital plane
View from above orbital plane
View from above satellite
View from above satellite

Ground track
Ground track

The orbit data is extracted from the following two-line orbital elements,

1 14059U 83042B   21264.51969617  .00000056  00000-0  40037-4 0  9994
2 14059  82.9757 345.8864 0042016 210.8698 148.9990 13.78741182930075
Epoch (UTC): 21 September 2021 12:28:21
Eccentricity: 0.0042016
inclination: 82.9757°
perigee height: 937 km
apogee height: 999 km
right ascension of ascending node: 345.8864°
argument of perigee: 210.8698°
revolutions per day: 13.78741182
mean anomaly at epoch: 148.9990°
orbit number at epoch: 93007

The dashed part of the orbit path shows where the satellite is in the earth's shadow,  

DLR